STARLINK-34552, 64731

Orbit data source: Space-Track

STARLINK-34552, 64731 is a payload satellite owned by SpaceX/Seattle (US) in LEO that was launched on Wed, 02 Jul 2025 UTC via an FALCON 9 launch vehicle from the Air Force Eastern Test Range (AFETR). Payload-class satellites include a variety of spacecraft equipped with specific instruments for various scientific and technological missions. These include communications satellites like Starlink; space stations such as the ISS; scientific satellites like the Hubble; Earth observation satellites from companies like Planet Labs, Umbra, and HawkEye 360; GPS; miniature CubeSats for education and research; and military/defense satellites.

Not visible in the next 10 days
Identifier
64731, 2025-144H
Orbit
LEO
Last TLE update
13 hours ago
Origin
Manufacturer
SpaceX/Seattle
Mission
Operational spacecraft
Bus & Motor
STARLINK V2MO, Unknown motor
Mass
575 kg wet, ~530 kg dry
Launch date (UTC)
2025-07-02 (1 week ago)
Launch vehicle
FALCON 9
Launch site
Air Force Eastern Test Range (AFETR)
Object type
Payload
Rocket body
Debris
Shape & HBR
Unknown
Radar Cross Section
RCS unknown

Expand to show TLE details & history

TLE from 13 hours ago
0 STARLINK-34552
1 64731U 25144H   25191.71579283 -.00042617  00000-0 -15007-3 0  9995
2 64731  53.1539 231.5039 0001678 358.6623   1.4398 15.88173433  2579
Epoch: 2025-07-10T17:10Z
TLE epoch observation values (Epoch: 2025-07-10T17:10:44.5Z)
Latitude
-0.00003°
Longitude
44.94038°
Altitude
307.204 km
Speed
7.726 km/s
True Right ascension
15h 26m 00s
True Declination
0° 00' 00"
Sunlit
Object was in full shadow at epoch
Visualization orbit readout
Latitude
-48.69594°
Longitude
-15.86741°
Altitude
323.863 km
Speed
7.714 km/s
Apparent Right ascension
08h 56m 30s
Apparent Declination
-49° 45' 46"
Sunlit
Object is in daylight
Visualization observer readout
Local Sidereal Time
18:46:02
Azimuth
235.827° WSW
Elevation
-65.113°
Doppler factor
1
Orbital elements
Apogee altitude
308.79 km
Perigee altitude
306.546 km
Semi-major axis
6,685.805 km
Eccentricity
0.00017
Inclination
53.1539°
RAAN
231.5039°
Arg. of periapsis
358.6623°
True anomaly
Unknown
Mean anomaly
1.4398°
Eccentric anomaly
Unknown
Mean motion
3.9702 °/min
Orbital period
90.68 mins
BSTAR
-0.00015007
Loading maneuver chart data...
Loading SW <> Apogee altitude chart data...
Loading historical data...
Loading historical data...
Loading historical data...
Loading historical data...
Loading historical data...
Loading historical data...
Loading historical data...

STARLINK-34552 Visibility

Observer location: undefined°, undefined°

STARLINK-34552 is likely not visible in the next few days
Span
Click to sort rows by Start time (UTC) header in descending order
Start Az.
Max El. time (UTC)
Max El. Az.
Max El.
End time (UTC)
End Az.
|